Location: Arrien
(43.3167°N, 0.1500°W)
Time: 22:51:37
(UTC+00:00)

Cosmos 1125 Rocket - Pass Details

Date: 15 October 2021
Orbit: 758 x 779 km, 74.0° (Epoch: 04 December)

Event Time Altitude Azimuth Distance (km) Brightness Sun altitude
Rises 18:09:54 0° 189° (S) 3,237 6.9 -10.3°
Reaches altitude 10° 18:12:18 10° 186° (S) 2,311 6.1 -10.7°
Maximum altitude 18:17:28 62° 106° (ESE) 865 3.5 -11.7°
Drops below altitude 10° 18:22:38 10° 27° (NNE) 2,314 5.7 -12.6°
Sets 18:25:02 0° 24° (NNE) 3,241 6.5 -13.1°
